Location: Newark
(45.2862°N, 9.8850°E)
Time: 11:23:00
(UTC+00:00)

N. Korean satellite - Pass Details

Date: 11 December 2019
Orbit: 454 x 508 km, 97.2° (Epoch: 17 January)

Event Time Altitude Azimuth Distance (km) Brightness Sun altitude
Rises 16:45:04 0° 183° (S) 2,600 10.6 -11.4°
Reaches altitude 10° 16:47:14 10° 190° (S) 1,718 9.8 -11.7°
Maximum altitude 16:50:46 41° 262° (W) 749 8.1 -12.3°
Drops below altitude 10° 16:54:17 10° 333° (NNW) 1,718 9.4 -12.9°
Sets 16:56:27 0° 341° (NNW) 2,600 10.3 -13.2°
